DMMIC EDXW-EDXW

Flight info

Callsign DMMIC
Flight time 0h 5m
Altitude
Route
Aircraft VL3

Departure

Time 2026-04-20 19:08
Airport Westerland Sylt Airport (EDXW)

Arrival

Time 2026-04-20 19:13
Airport Westerland Sylt Airport (EDXW)
Time Latitude Longitude Altitude Speed Heading
2026-04-20 18:59 54.91406 8.32436 22 ft 0 kts 263°
2026-04-20 19:04 54.91405 8.32426 21 ft 0 kts 262°
2026-04-20 19:05 54.91394 8.32441 22 ft 8 kts 146°
2026-04-20 19:05 54.91285 8.32547 22 ft 23 kts 156°
2026-04-20 19:05 54.91181 8.32682 22 ft 8 kts 117°
2026-04-20 19:05 54.91207 8.32793 23 ft 20 kts 66°
2026-04-20 19:06 54.91244 8.33022 25 ft 20 kts 74°
2026-04-20 19:06 54.91308 8.33230 23 ft 23 kts 32°
2026-04-20 19:06 54.91383 8.33246 23 ft 18 kts 349°
2026-04-20 19:06 54.91524 8.33178 25 ft 22 kts 359°
2026-04-20 19:07 54.91724 8.33181 30 ft 22 kts
2026-04-20 19:07 54.91827 8.33198 29 ft 0 kts 20°
2026-04-20 19:07 54.91871 8.33239 29 ft 15 kts 38°
2026-04-20 19:07 54.91889 8.33327 29 ft 12 kts 106°
2026-04-20 19:08 54.91611 8.33681 157 ft 98 kts 144°
2026-04-20 19:08 54.90754 8.34657 1390 ft 125 kts 137°
2026-04-20 19:08 54.89793 8.35762 1479 ft 175 kts 141°
2026-04-20 19:09 54.88803 8.36826 1329 ft 161 kts 143°
2026-04-20 19:09 54.87996 8.37934 1280 ft 134 kts 106°
2026-04-20 19:09 54.88260 8.39193 1376 ft 108 kts 54°
2026-04-20 19:09 54.88703 8.40179 1313 ft 104 kts 56°
2026-04-20 19:10 54.89318 8.40458 1333 ft 109 kts 340°
2026-04-20 19:10 54.89913 8.39576 1243 ft 114 kts 327°
2026-04-20 19:10 54.91039 8.38055 1242 ft 294 kts 328°
2026-04-20 19:10 54.92895 8.35803 1403 ft 307 kts 329°
2026-04-20 19:11 54.94456 8.34062 1305 ft 233 kts 335°
2026-04-20 19:11 54.95740 8.32840 1170 ft 193 kts 334°
2026-04-20 19:11 54.95594 8.31131 1550 ft 159 kts 211°
2026-04-20 19:11 54.94683 8.30252 1420 ft 117 kts 180°
2026-04-20 19:12 54.94074 8.30572 1179 ft 80 kts 136°
2026-04-20 19:12 54.93521 8.31304 982 ft 93 kts 135°
2026-04-20 19:12 54.93062 8.31846 702 ft 72 kts 136°
2026-04-20 19:12 54.92677 8.32344 521 ft 72 kts 133°
2026-04-20 19:13 54.92296 8.32841 287 ft 66 kts 137°
2026-04-20 19:13 54.91934 8.33281 60 ft 62 kts 134°
2026-04-20 19:13 54.91635 8.33642 30 ft 42 kts 128°
2026-04-20 19:13 54.91248 8.34152 372 ft 113 kts 136°
2026-04-20 19:14 54.90640 8.35034 2480 ft 140 kts 131°
2026-04-20 19:14 54.89867 8.36033 2314 ft 138 kts 140°
2026-04-20 19:14 54.89062 8.36815 2284 ft 121 kts 141°
2026-04-20 19:14 54.88434 8.37420 2235 ft 79 kts 137°
2026-04-20 19:15 54.88272 8.38026 1779 ft 75 kts 43°
2026-04-20 19:15 54.88692 8.38526 1445 ft 75 kts 34°
2026-04-20 19:15 54.89210 8.38396 1231 ft 80 kts 349°
2026-04-20 19:15 54.89731 8.37884 1094 ft 92 kts 337°
2026-04-20 19:16 54.90259 8.37237 1023 ft 96 kts 338°
2026-04-20 19:16 54.90910 8.36558 1009 ft 124 kts 340°
2026-04-20 19:16 54.91793 8.35701 1118 ft 150 kts 338°
2026-04-20 19:16 54.92628 8.34979 1340 ft 120 kts 342°
2026-04-20 19:17 54.93313 8.34314 1345 ft 103 kts 338°
2026-04-20 19:17 54.93882 8.33630 1188 ft 93 kts 337°
2026-04-20 19:17 54.94087 8.32595 951 ft 108 kts 243°
2026-04-20 19:17 54.93563 8.31940 816 ft 85 kts 197°
2026-04-20 19:18 54.93023 8.31965 565 ft 76 kts 149°
2026-04-20 19:18 54.92609 8.32457 357 ft 70 kts 139°
2026-04-20 19:18 54.92225 8.32920 204 ft 64 kts 136°
2026-04-20 19:18 54.91864 8.33376 55 ft 65 kts 136°
2026-04-20 19:19 54.91559 8.33770 30 ft 64 kts 145°
2026-04-20 19:19 54.91060 8.34322 1838 ft 77 kts 135°
2026-04-20 19:19 54.90413 8.35204 2368 ft 141 kts 134°
2026-04-20 19:19 54.89686 8.36098 2522 ft 116 kts 137°
2026-04-20 19:20 54.89046 8.36837 2529 ft 107 kts 135°
2026-04-20 19:20 54.88458 8.37646 2360 ft 110 kts 128°
2026-04-20 19:20 54.87939 8.38618 2264 ft 107 kts 120°
2026-04-20 19:20 54.87485 8.39602 2155 ft 104 kts 109°
2026-04-20 19:21 54.87213 8.40773 2035 ft 104 kts 105°
2026-04-20 19:21 54.86992 8.41952 1906 ft 102 kts 86°
2026-04-20 19:21 54.87259 8.43070 1776 ft 101 kts 59°
2026-04-20 19:21 54.87685 8.44029 1700 ft 99 kts 53°
2026-04-20 19:22 54.88296 8.44571 1597 ft 111 kts
2026-04-20 19:22 54.88993 8.43821 1497 ft 127 kts 322°
2026-04-20 19:22 54.89584 8.42721 1416 ft 126 kts 322°
2026-04-20 19:22 54.90176 8.41634 1396 ft 121 kts 323°
2026-04-20 19:23 54.90743 8.40583 1391 ft 117 kts 323°
2026-04-20 19:23 54.91326 8.39472 1396 ft 141 kts 313°
2026-04-20 19:23 54.91756 8.37877 1400 ft 148 kts 301°
2026-04-20 19:23 54.92213 8.36281 1412 ft 148 kts 303°
2026-04-20 19:24 54.92685 8.34677 1406 ft 151 kts 303°